Lapse_Rate
7.4 7.4 7.4 7.3 7.2 7.8 8.3 8.0 7.9 7.7 7.7 8.1 8.1 8.1 7.8 7.9 7.7 7.7 7.3 7.3 7.5 7.6 7.5 7.4 7.3 7.3 7.2 7.1 7.0 6.8 6.7 6.6 6.6 6.6 6.6 6.5 6.6 6.7 6.9 6.9 6.9 6.9 7.0 7.0 7.0 7.0 7.0 7.0 7.0
7.6 7.5 7.5 7.4 7.5 8.7 8.1 7.5 7.6 7.9 8.1 8.1 8.0 8.0 8.0 7.6 7.7 7.5 7.3 7.3 7.5 7.4 7.4 7.3 7.3 7.3 7.3 7.0 6.9 6.7 6.6 6.5 6.6 6.6 6.6 6.6 6.6 6.7 6.9 6.9 6.9 6.9 7.1 7.1 7.2 7.0 7.1 7.0 7.0
7.7 7.7 7.6 7.2 7.6 8.7 8.1 7.4 7.8 7.9 8.1 8.0 7.9 8.0 7.9 7.8 7.6 7.5 7.5 7.4 7.3 7.3 7.3 7.4 7.3 7.2 7.2 7.1 7.0 6.9 6.7 6.6 6.6 6.7 6.7 6.7 6.6 6.7 6.8 6.8 6.9 7.0 7.0 7.0 7.2 7.2 7.2 7.1 7.0
7.7 7.7 7.8 7.8 8.0 7.3 7.2 7.4 7.9 7.8 7.9 8.0 7.9 7.5 7.7 7.7 7.6 7.6 7.6 7.5 7.4 7.4 7.4 7.4 7.3 7.2 7.1 6.9 6.8 6.8 6.8 6.7 6.7 6.7 6.8 6.8 6.7 6.7 6.8 6.8 6.9 6.9 6.9 7.0 7.1 7.2 7.2 7.2 7.1
7.7 7.8 7.7 8.1 7.7 7.3 7.6 7.8 7.8 7.5 7.7 7.9 7.8 7.6 7.7 7.6 7.5 7.4 7.4 7.6 7.6 7.5 7.4 7.4 7.3 7.2 7.0 6.9 6.9 6.8 6.7 6.7 6.7 6.7 6.7 6.8 6.8 6.7 6.7 6.8 6.8 6.9 6.9 6.9 7.0 7.0 7.1 7.3 7.2
7.5 7.7 8.1 8.8 8.0 7.4 7.6 7.9 7.9 7.7 7.7 7.7 7.5 7.7 7.6 7.6 7.4 7.3 7.3 7.4 7.4 7.4 7.4 7.3 7.2 7.2 7.2 7.1 7.0 6.9 6.8 6.7 6.7 6.7 6.7 6.8 6.7 6.9 6.7 6.7 6.8 6.8 6.8 6.8 6.9 6.8 7.0 7.0 7.1
7.3 7.5 8.1 8.0 8.0 7.3 7.4 7.7 7.8 7.7 7.5 7.5 7.6 7.3 7.4 7.5 7.4 7.5 7.4 7.3 7.4 7.4 7.3 7.2 7.2 7.3 7.3 7.1 6.9 6.9 6.9 6.8 6.7 6.8 6.8 6.8 6.9 6.8 6.8 6.8 6.8 6.8 6.8 6.8 6.8 6.8 6.8 6.7 6.9
7.4 7.5 7.5 7.7 7.8 7.5 7.7 7.6 7.6 7.5 7.2 7.4 7.4 6.9 6.8 7.3 7.3 7.4 7.4 7.3 7.4 7.5 7.4 7.4 7.5 7.6 7.4 7.2 7.1 6.9 6.9 6.8 6.8 6.8 6.9 6.9 7.0 7.0 6.9 6.8 6.9 6.8 6.8 6.7 6.8 6.9 6.8 6.8 6.8
7.6 7.2 7.9 7.5 7.5 7.1 7.7 7.6 7.6 7.6 7.5 7.5 7.6 7.5 7.5 7.6 7.5 7.5 7.6 7.6 7.5 7.5 7.5 7.5 7.6 7.7 7.6 7.5 7.1 7.0 6.9 6.9 6.9 6.9 7.1 7.0 6.9 7.0 6.9 6.8 6.9 6.9 6.8 6.9 6.8 6.9 7.0 6.9 6.9
7.5 7.3 7.3 7.6 7.6 7.4 7.4 7.5 7.6 7.4 7.4 7.5 7.4 7.6 7.7 7.7 7.6 7.7 7.8 7.8 7.6 7.4 7.5 7.5 7.5 7.7 7.6 7.6 7.2 7.0 7.0 7.0 7.1 7.0 7.1 7.1 6.9 6.9 7.0 7.0 6.8 6.9 7.0 7.0 7.1 7.1 7.1 7.1 7.0
7.6 7.1 7.5 7.4 7.4 7.2 7.3 7.3 7.5 7.4 7.4 7.2 7.6 7.6 7.7 7.7 7.7 7.6 7.6 7.7 7.7 7.6 7.4 7.3 7.2 7.4 7.4 7.7 7.5 7.2 7.2 7.2 7.1 7.0 7.0 7.0 7.0 7.0 6.9 6.9 6.9 7.1 7.3 7.3 7.3 7.3 7.3 7.3 7.1
7.3 7.5 7.5 7.5 7.4 7.3 7.2 7.3 7.3 7.3 7.1 7.3 7.5 7.7 7.8 7.7 7.6 7.6 7.7 7.7 7.7 7.6 7.3 7.3 7.2 7.3 7.3 7.5 7.4 7.4 7.3 7.2 7.3 7.3 6.9 6.9 7.0 7.0 7.0 7.1 7.2 7.2 7.3 7.4 7.3 7.3 7.4 7.3 7.3
7.4 7.6 7.5 7.4 7.2 7.3 7.3 7.2 7.1 7.1 7.3 7.2 7.0 6.9 7.2 7.3 7.4 7.5 7.5 7.5 7.3 7.4 7.2 7.2 6.9 7.0 7.2 7.0 7.1 7.2 7.2 7.1 7.1 7.2 7.0 6.9 7.0 7.2 7.3 7.2 7.4 7.4 7.4 7.4 7.5 7.5 7.4 7.3 7.3
7.6 7.5 7.4 7.5 7.2 7.3 7.5 7.2 7.3 6.8 7.1 6.9 6.8 6.6 6.4 6.8 7.0 7.1 7.1 7.1 7.1 7.1 7.0 7.0 6.6 6.5 6.8 6.9 7.0 7.0 6.9 6.8 6.6 6.6 6.8 6.9 7.1 7.1 7.3 7.3 7.5 7.5 7.5 7.5 7.5 7.4 7.4 7.3 7.2
7.4 7.3 7.4 7.4 7.4 7.2 7.3 7.2 7.3 6.9 7.1 6.8 6.7 6.8 6.6 6.5 6.6 6.8 6.9 7.2 7.1 7.1 7.0 7.0 6.7 6.4 6.7 6.8 7.0 7.1 7.3 7.3 6.7 6.9 7.0 6.6 6.7 6.8 6.8 7.3 7.4 7.5 7.5 7.5 7.4 7.3 7.2 7.3 7.2
7.0 7.2 6.9 6.8 7.3 7.0 6.9 7.3 6.3 6.2 6.8 6.4 6.7 6.7 6.5 6.4 6.4 6.8 7.0 7.1 7.2 7.3 7.3 7.3 7.1 6.5 6.6 7.1 7.0 7.2 7.1 7.1 7.0 6.9 6.9 6.6 6.5 6.1 6.3 7.0 7.2 7.3 7.2 7.3 7.4 7.3 7.3 7.3 7.3
6.7 7.2 6.7 6.6 7.1 6.7 6.4 6.9 6.5 6.2 6.0 6.6 6.4 6.4 6.4 6.4 6.5 6.7 6.9 7.1 7.3 7.4 7.4 7.5 7.5 7.2 6.8 7.1 7.3 7.2 6.7 6.4 6.6 6.6 6.3 5.9 4.9 5.4 5.9 6.4 6.8 7.0 7.1 7.2 7.2 7.2 7.4 7.4 7.5
7.7 6.6 6.3 6.6 6.5 6.0 6.0 6.1 6.2 6.1 6.1 6.2 6.6 6.5 6.4 6.5 6.7 6.9 7.0 7.2 7.4 7.5 7.5 7.7 7.7 7.6 7.2 7.1 7.3 7.1 6.9 6.5 6.5 6.3 6.2 5.7 5.2 5.1 5.8 6.1 6.3 6.8 7.1 7.0 7.0 7.1 7.2 7.3 7.3
6.3 6.1 6.3 6.5 5.8 5.9 6.2 6.0 6.2 6.0 6.2 6.5 6.5 6.5 6.6 6.7 6.8 6.9 7.1 7.3 7.4 7.5 7.5 7.6 7.8 7.8 7.4 7.2 7.0 6.9 6.7 6.5 6.0 6.2 6.2 6.1 5.4 5.1 5.2 5.5 6.1 6.2 6.2 6.6 6.6 6.6 6.7 7.2 7.1
6.2 5.8 6.1 6.0 5.8 5.9 5.9 5.9 6.1 6.0 6.5 6.5 6.5 6.7 6.8 6.8 6.8 6.9 7.1 7.2 7.3 7.5 7.7 7.7 7.6 7.6 7.4 7.1 6.8 6.5 6.2 6.4 6.0 6.3 6.2 5.4 5.6 5.6 5.6 5.5 5.7 6.0 6.3 6.6 6.3 6.4 6.5 6.6 6.9
6.4 5.9 6.1 5.7 5.6 5.7 5.3 6.4 6.5 6.6 6.5 6.5 6.7 6.9 6.9 7.0 7.0 7.1 7.1 7.2 7.3 7.4 7.5 7.5 7.5 7.2 6.8 6.5 6.3 6.3 6.1 6.1 6.0 5.9 5.7 5.7 5.5 5.7 5.7 5.4 5.1 5.3 5.7 6.1 6.0 6.1 6.5 6.4 6.6
6.0 6.2 5.7 5.3 5.5 6.9 5.4 7.7 6.4 5.9 6.2 6.6 6.8 6.9 7.0 7.2 7.1 7.1 7.1 7.3 7.3 7.3 7.3 7.3 7.2 7.1 7.0 6.7 6.2 6.0 6.3 6.0 5.9 5.8 5.7 5.9 5.4 5.3 5.4 5.3 5.6 5.3 6.0 6.2 6.4 6.8 6.6 6.4 6.3
6.1 6.1 5.9 5.6 5.8 5.8 6.3 6.4 7.4 6.8 6.2 6.8 6.9 7.0 7.1 7.1 7.0 6.9 7.1 7.1 7.0 7.1 7.2 7.2 7.2 7.0 6.7 6.4 6.2 6.1 6.1 5.8 6.2 6.6 6.6 6.6 5.9 5.7 5.8 5.9 5.8 6.0 6.5 6.7 6.6 6.7 6.9 6.8 6.6
5.8 5.8 5.7 5.5 5.9 6.0 6.4 6.7 7.7 6.8 6.8 6.7 7.1 7.1 7.0 6.9 7.0 7.2 7.3 7.3 7.2 7.1 7.1 7.0 6.8 6.7 6.5 6.3 6.2 6.1 6.1 6.1 6.3 6.4 6.6 6.4 6.4 6.3 6.2 6.3 6.3 6.5 6.7 6.7 6.6 6.5 6.6 6.9 6.8
5.5 5.7 6.7 6.7 6.5 6.9 5.9 6.8 7.4 6.1 6.8 7.0 7.1 7.1 7.0 7.1 7.3 7.3 7.2 7.2 7.1 7.0 6.9 6.7 6.6 6.5 6.4 6.4 6.4 6.4 6.5 6.4 6.4 6.4 6.5 6.4 6.2 6.3 6.4 6.5 6.7 7.0 7.2 7.2 7.1 7.0 6.7 6.8 6.6
5.6 6.1 7.6 7.1 7.5 7.9 5.2 6.1 6.9 6.6 6.7 7.1 7.2 7.1 7.2 7.4 7.3 7.2 7.1 6.9 6.8 6.6 6.5 6.5 6.5 6.4 6.5 6.5 6.4 6.5 6.5 6.5 6.5 6.5 6.6 6.6 6.6 6.5 6.5 6.7 7.1 7.2 7.2 7.2 7.3 7.4 7.2 7.1 7.1
5.6 5.6 6.8 6.3 6.2 6.4 7.0 6.4 6.0 6.5 6.8 6.8 7.0 7.1 7.2 7.3 7.3 7.3 7.1 6.8 6.6 6.4 6.4 6.3 6.2 6.2 6.4 6.5 6.5 6.4 6.3 6.3 6.5 6.3 6.3 6.5 6.6 6.7 6.7 6.7 6.9 6.9 7.0 7.0 7.1 7.1 7.0 7.0 6.9
5.7 6.0 5.9 6.3 6.6 6.8 7.5 7.0 7.4 6.2 7.0 7.2 7.4 7.4 7.4 7.2 7.1 7.1 6.9 6.7 6.8 6.6 6.5 6.4 6.3 6.4 6.5 6.5 6.5 6.4 6.4 6.2 6.1 6.0 6.0 6.0 6.0 6.1 6.2 6.6 6.9 7.0 6.8 6.7 6.7 6.9 7.0 7.0 7.0
5.6 6.2 6.4 6.7 6.9 7.7 7.8 7.9 6.6 6.8 7.4 7.5 7.6 7.5 7.4 7.2 7.1 7.0 6.9 6.9 6.7 6.6 6.5 6.6 6.5 6.5 6.6 6.7 6.6 6.8 6.6 6.3 6.1 6.1 6.1 6.1 6.2 6.2 6.3 6.5 6.8 7.0 6.9 7.0 7.2 7.2 7.3 7.3 7.2
6.2 6.3 6.2 6.4 7.0 6.8 7.4 7.2 6.9 7.0 6.9 7.3 7.7 7.6 7.3 7.1 7.0 7.0 6.9 6.9 6.7 6.4 6.6 6.5 6.6 6.7 6.7 6.9 6.8 6.6 6.1 6.1 6.0 6.1 6.0 6.0 6.2 6.5 6.8 7.1 7.3 7.3 7.4 7.5 7.5 7.8 7.9 7.9 7.8
Wind_Speed
6 5 4 4 5 6 5 5 2 2 4 1 3 2 2 5 6 4 3 8 12 17 23 25 21 18 16 15 16 19 21 21 20 20 19 18 16 16 15 14 13 13 12 13 14 15 15 15 16
3 4 5 2 6 8 6 4 6 5 3 4 5 2 3 3 2 3 5 8 16 18 22 24 22 20 17 16 16 18 21 21 20 20 18 17 16 15 14 14 14 13 12 12 13 13 14 13 15
6 6 4 3 3 2 5 7 7 3 6 3 4 2 3 3 4 3 4 11 16 16 21 22 22 20 18 18 18 19 20 21 20 19 18 17 16 15 14 13 13 12 13 12 12 12 12 12 11
4 5 4 6 7 6 6 9 8 6 6 3 3 3 4 4 2 4 4 13 14 14 17 21 21 20 18 17 17 18 21 21 21 20 18 17 16 15 14 13 12 12 12 12 11 11 12 11 9
4 3 4 4 5 6 5 7 7 4 2 3 5 4 2 4 4 3 8 12 12 11 12 16 17 17 16 16 17 18 20 21 20 19 18 16 15 13 13 14 12 12 12 11 11 10 9 10 9
4 3 6 8 5 5 4 7 6 8 7 5 1 4 5 4 2 4 8 10 9 10 11 16 16 16 16 16 18 19 19 19 19 18 17 16 15 15 13 12 11 11 12 11 10 8 7 6 7
4 4 1 1 7 6 3 6 8 6 3 10 6 4 4 10 5 5 8 10 10 11 11 14 16 15 15 16 17 18 18 18 17 17 17 16 15 14 14 11 11 9 10 11 9 8 8 5 4
3 3 4 4 5 5 3 3 3 7 5 6 6 3 3 8 3 5 7 10 10 9 10 11 14 15 16 15 16 17 16 16 16 15 15 14 12 12 12 11 10 10 9 9 9 9 7 6 5
2 4 5 2 4 6 2 3 3 2 4 7 2 4 5 1 4 6 8 11 12 10 11 11 12 13 14 14 14 13 12 13 12 12 12 12 12 13 13 9 14 11 10 9 8 8 8 7 8
4 4 1 2 2 2 2 4 8 5 5 3 6 3 2 3 6 9 11 13 16 15 14 11 11 12 13 11 12 13 13 14 14 14 14 13 10 11 9 9 10 9 9 8 8 9 9 10 11
1 4 2 3 2 3 5 9 4 8 6 6 10 9 8 8 9 11 12 14 16 16 13 13 11 12 12 10 12 11 11 11 10 12 12 11 8 7 9 9 11 10 11 12 14 13 13 8 6
6 2 3 1 3 4 8 8 9 9 10 7 7 8 11 13 12 13 13 13 13 14 14 13 10 9 11 11 9 11 9 9 10 10 10 7 7 6 5 5 3 5 5 4 6 5 4 4 2
6 2 4 6 8 12 11 12 11 11 3 4 4 7 10 10 12 11 11 11 11 13 13 13 12 11 10 8 8 7 9 10 9 6 6 6 6 4 5 3 3 2 2 3 4 3 3 3 2
2 6 9 8 9 7 8 4 3 5 2 4 3 6 8 9 8 9 9 11 10 11 12 12 13 11 11 8 9 7 8 7 5 6 6 5 3 3 5 2 1 1 2 0 2 2 1 0 4
2 8 8 8 5 3 3 10 9 2 4 5 5 7 7 8 7 7 9 10 10 8 9 11 10 10 11 10 8 6 7 7 8 9 10 8 6 5 2 2 1 2 1 0 1 2 2 5 7
5 4 6 7 3 4 5 9 8 2 5 7 8 7 7 8 8 7 8 10 11 9 8 11 9 11 10 8 7 6 11 13 13 15 16 20 6 4 2 3 2 2 2 1 1 1 2 1 4
5 9 6 5 2 4 5 9 5 9 6 8 8 7 8 7 6 11 11 9 10 9 8 12 12 12 11 7 12 14 14 12 12 12 14 19 22 6 4 3 3 2 3 3 2 1 1 3 5
10 8 6 8 5 7 12 15 12 9 5 7 6 6 6 7 10 12 13 11 6 4 6 14 10 11 11 8 9 8 7 9 11 7 11 17 3 7 7 4 2 2 2 3 3 4 2 2 6
6 8 11 10 7 8 13 12 11 7 7 2 4 5 6 7 7 10 13 13 9 9 13 13 10 10 9 7 7 7 5 8 5 4 9 10 9 4 5 2 1 1 2 2 3 4 5 4 7
9 12 13 11 4 6 11 13 12 4 2 3 2 3 5 6 8 11 12 11 10 9 9 10 10 9 6 6 7 6 5 6 7 10 10 11 9 10 9 4 1 3 3 4 5 5 5 5 8
13 14 12 9 4 14 10 18 6 6 7 5 4 2 5 8 9 10 11 10 9 9 9 10 10 9 7 10 9 8 7 6 5 6 7 11 13 10 10 11 6 3 2 2 2 4 7 7 8
13 11 12 10 6 6 0 5 7 10 8 6 6 5 7 8 9 10 9 9 8 8 8 10 10 10 8 10 11 12 8 7 5 6 5 5 4 8 9 7 6 2 2 3 2 4 6 7 8
6 5 10 10 9 9 12 7 6 6 9 9 7 6 7 7 8 9 7 7 7 7 7 10 11 10 11 11 9 7 6 5 6 5 7 4 4 4 4 5 5 3 3 2 3 4 5 6 8
6 7 6 4 7 9 16 12 8 9 9 11 9 7 7 8 9 9 9 9 9 9 9 12 12 12 10 8 7 7 6 6 6 6 7 6 6 6 6 5 3 2 2 3 4 4 5 5 6
14 11 5 7 7 8 2 10 13 6 6 12 12 11 10 9 10 10 11 10 10 11 11 10 11 11 10 8 7 6 4 4 3 5 4 5 4 4 5 5 3 3 4 3 3 3 4 5 5
22 19 7 7 10 7 7 8 4 4 9 11 12 12 11 11 9 10 10 10 10 10 9 8 9 9 8 8 7 6 4 3 3 3 2 2 1 2 4 4 4 3 3 3 3 3 4 4 4
17 20 17 3 1 3 7 10 5 10 13 14 14 13 13 12 11 10 9 8 8 8 8 8 8 7 7 6 3 3 2 2 2 2 2 2 1 1 3 4 4 3 4 5 4 3 3 3 3
13 13 9 10 7 10 10 14 9 14 17 17 16 16 15 12 11 9 8 7 6 6 6 6 6 5 3 2 3 2 2 3 2 2 3 2 1 2 3 3 4 5 6 7 6 4 4 4 3
10 15 11 11 12 8 8 8 4 19 22 21 20 18 17 15 13 11 8 7 8 7 6 5 5 6 5 4 3 3 3 4 4 4 3 3 3 4 4 5 6 6 7 7 7 6 4 4 3
22 19 21 9 11 14 12 15 5 9 16 19 20 19 18 16 14 12 9 8 7 5 4 7 7 9 9 7 6 6 5 5 6 6 5 4 3 4 4 5 6 6 6 7 7 6 4 5 4
Wind_Direction
242 216 234 232 236 237 132 85 358 37 140 58 146 220 344 345 354 20 88 151 152 161 160 165 165 169 163 159 157 144 140 137 138 136 136 136 135 133 133 133 131 125 122 117 116 117 117 116 113
237 206 222 262 247 181 113 13 2 11 2 146 169 230 224 73 31 67 131 157 165 160 162 168 167 170 166 159 156 147 141 139 140 139 139 138 139 138 139 139 133 127 123 121 119 119 118 117 118
240 244 258 253 228 114 110 23 360 49 142 156 175 261 347 56 59 21 49 156 163 165 167 163 164 166 169 162 158 148 143 141 142 142 142 143 144 144 144 141 138 137 133 129 123 123 119 118 120
248 198 204 251 124 88 59 31 13 119 168 184 315 158 140 54 14 18 123 160 165 165 171 142 162 164 165 162 157 151 149 148 147 147 148 150 149 150 148 147 145 144 140 136 134 131 129 128 126
235 236 229 192 131 115 78 31 23 55 83 348 312 78 66 64 61 77 144 158 164 160 168 159 158 159 159 159 161 159 158 155 155 154 154 155 153 154 155 155 154 148 141 139 137 135 138 136 136
216 274 225 195 138 133 85 26 21 41 54 42 1 311 64 68 44 96 140 154 155 159 161 154 163 164 162 164 167 168 166 163 162 162 162 160 162 161 164 164 160 157 151 144 138 141 140 144 142
280 254 279 166 147 161 63 356 30 6 19 29 358 320 68 46 56 114 143 154 162 160 161 159 169 171 172 174 175 173 171 170 171 172 171 169 169 170 165 167 162 156 147 148 149 149 149 154 150
278 267 215 203 188 125 55 351 6 15 44 344 340 26 36 22 83 129 154 167 169 166 164 163 167 173 179 179 180 180 176 176 180 178 176 174 170 170 173 166 168 163 161 162 161 163 165 161 172
267 234 225 200 205 107 52 346 59 345 276 317 341 324 14 86 164 169 176 184 183 183 175 169 167 173 179 181 176 177 181 181 180 181 181 176 192 184 171 178 153 170 173 177 179 179 183 193 198
262 255 143 64 90 120 315 311 325 299 317 284 306 176 244 210 214 212 204 199 198 191 183 177 171 171 173 178 166 186 183 191 196 195 188 200 205 201 198 160 168 177 184 191 200 206 209 220 233
202 291 119 155 100 325 303 292 278 303 269 305 318 314 289 258 246 235 226 218 208 196 187 183 175 170 180 167 176 184 188 198 202 205 197 200 192 176 203 180 188 191 190 205 195 199 219 244 276
260 255 255 146 200 268 282 295 275 274 279 331 307 304 289 268 249 243 236 224 214 201 195 179 178 173 188 173 184 180 189 183 200 197 196 186 194 187 209 213 188 211 217 243 244 233 249 248 255
251 245 254 254 266 270 269 265 276 260 264 291 318 300 313 296 262 249 256 243 222 214 203 186 181 190 187 188 177 172 196 194 196 178 184 202 206 194 185 184 218 242 254 267 257 270 241 224 279
355 287 277 280 271 261 269 266 248 129 288 306 342 355 351 333 284 264 245 248 235 222 207 189 188 193 174 184 181 183 190 158 157 144 170 188 189 136 195 181 210 258 279 329 283 327 260 184 63
301 294 282 253 254 236 263 241 230 110 320 301 355 11 1 3 332 275 270 258 244 236 223 182 178 173 188 184 181 185 171 129 97 66 29 54 62 68 20 63 27 11 43 177 222 179 167 119 89
259 260 278 113 213 134 220 285 163 344 329 312 338 346 348 358 352 359 324 284 268 246 212 146 147 164 182 177 169 161 77 80 70 61 40 359 39 106 118 102 96 73 90 65 240 257 174 149 141
196 269 245 274 236 275 239 300 273 305 301 302 322 330 338 351 357 355 340 315 297 252 196 136 155 163 162 132 97 92 97 98 98 97 90 65 317 16 74 98 107 131 133 142 108 89 40 135 105
283 235 218 259 142 267 275 275 278 291 300 321 325 340 346 2 6 358 354 345 322 238 172 134 155 150 121 109 106 106 106 95 97 102 110 115 187 329 61 55 94 149 164 142 149 133 104 168 125
269 255 257 262 268 291 270 277 277 277 282 357 22 3 7 15 8 19 17 18 49 64 95 136 137 127 133 128 126 127 120 97 98 110 104 121 132 83 55 71 109 229 204 130 173 148 169 164 143
232 249 256 272 280 233 278 275 277 307 143 93 38 34 4 19 42 37 34 44 58 84 104 105 114 123 120 122 125 130 149 113 149 151 150 150 156 146 133 119 294 258 195 189 190 201 193 204 194
228 237 246 257 256 255 278 265 229 162 146 139 127 103 55 37 38 45 41 42 62 81 99 106 108 105 104 121 124 112 107 106 159 184 173 184 158 150 146 151 139 263 257 213 221 232 223 217 209
238 230 241 247 252 256 236 275 185 170 172 174 144 102 73 54 57 57 54 55 64 85 107 119 126 128 135 146 140 149 171 174 198 183 169 161 157 165 171 122 134 204 263 280 226 232 251 244 222
241 202 212 224 243 278 239 254 220 192 200 169 144 115 95 85 76 81 88 95 99 116 127 135 137 144 161 171 175 166 158 178 147 152 149 149 165 204 124 131 139 176 207 218 253 239 240 253 257
147 159 160 211 248 247 238 230 242 198 210 158 146 130 113 103 103 106 114 127 122 129 142 146 153 156 160 165 162 176 160 168 167 160 167 176 174 172 155 144 141 150 241 240 231 217 232 253 269
192 182 193 223 211 243 121 226 246 147 171 169 155 141 135 128 117 114 115 113 117 127 139 153 164 160 165 172 176 175 184 182 175 172 178 160 162 161 157 162 157 197 216 224 238 230 246 244 235
207 203 212 228 227 242 144 228 196 217 166 157 156 153 144 136 133 124 119 122 127 134 147 158 169 164 176 185 189 185 191 199 218 196 190 189 190 150 142 172 193 208 227 231 234 257 273 278 263
201 218 230 285 44 274 225 231 195 171 172 170 169 168 162 154 153 148 144 143 145 150 163 183 193 197 193 202 194 186 200 251 278 274 275 260 250 196 191 194 197 204 217 225 225 246 259 270 285
211 192 191 220 228 236 241 246 255 179 185 184 183 187 177 169 168 165 167 168 169 175 184 203 226 241 227 227 223 230 205 205 220 239 254 265 265 230 217 219 231 207 211 218 219 217 211 237 234
182 195 214 214 229 237 258 243 176 196 195 188 192 192 186 184 179 174 171 182 187 185 199 207 230 227 225 215 206 187 171 178 177 183 188 192 190 207 219 229 230 226 220 219 225 226 218 228 226
209 212 205 207 197 236 267 269 159 207 197 196 196 194 193 192 186 181 178 182 187 189 205 219 220 214 204 194 178 158 153 174 173 166 164 173 199 190 218 213 221 230 230 224 233 224 224 223 212